Location: Oberkirch
(48.5323°N, 8.0787°E)
Time: 16:08:36
(UTC+00:00)

USA 267 - Pass Details

Date: 08 November 2025
Orbit: 1100 x 1108 km, 123.0° (Epoch: 21 November)

Event Time Altitude Azimuth Distance (km) Brightness Sun altitude
Rises 04:53:59 0° 62° (ENE) 3,924 7.1 -15.2°
Reaches altitude 10° 04:56:32 10° 57° (ENE) 2,964 6.2 -14.8°
Maximum altitude 05:02:46 50° 345° (NNW) 1,381 3.6 -13.8°
Enters shadow 05:07:39 17° 277° (W) 2,475 4.4 -13.0°
